Location: Chevresis
(49.7541°N, 3.5705°E)
Time: 23:00:51
(UTC+00:00)

Daily predictions for brighter satellites

Satellite Brightness Start Highest point End
(mag) Time Altitude Azimuth Time Altitude Azimuth Time Altitude Azimuth
BREEZE-M DEB (TANK) 4.1 19:59:28 10° W 20:03:46 86° S 20:21:41 10° ESE
Cosmos 1833 Rocket 3.0 20:17:11 10° NNW 20:22:46 57° NE 20:28:19 10° SE
Cosmos 1455 Rocket 3.1 20:19:29 10° N 20:23:54 88° ENE 20:28:15 10° S
Cosmos 1125 Rocket 3.8 20:18:57 10° S 20:24:02 50° ESE 20:29:09 10° NNE
NOSS 2-3 (E) 3.1 20:20:27 10° SW 20:24:05 73° SE 20:28:11 10° NE
Orbus 7S? 3.6 20:22:42 10° WNW 20:25:26 36° SW 20:28:00 10° SSE
Lacrosse 5 2.5 20:20:27 10° WSW 20:25:28 62° NNW 20:30:30 10° NE
Nadezhda 3 Rocket 4.0 20:19:19 10° N 20:25:30 84° E 20:31:40 10° S
IRS-1C Rocket 4.2 20:21:22 10° SSE 20:26:36 76° ENE 20:31:54 10° NNW
GP-B 3.6 20:23:52 10° N 20:28:15 66° W 20:32:37 10° SSW
IRS-1A Rocket 4.4 20:23:38 10° SSE 20:29:19 81° ENE 20:35:10 10° NNW
Cosmos 1975 Rocket 3.2 20:25:02 10° S 20:29:26 61° E 20:33:51 10° NNE
MetOp-B 4.4 20:30:53 10° S 20:36:14 76° WSW 20:41:37 10° NNW
NOSS 2-2 (D) 2.8 20:34:12 10° SW 20:37:25 80° NW 20:40:36 10° NE
Cosmos 1844 Rocket 4.0 20:36:01 10° SW 20:41:20 45° NW 20:46:43 10° NNE
Cosmos 2082 Rocket 3.5 20:37:27 10° NNW 20:42:21 29° NE 20:47:14 10° ESE
NOSS 2-3 (C) 3.4 20:39:50 10° SW 20:43:28 78° NW 20:47:39 10° NE
Cosmos 2084 3.9 20:43:11 10° WSW 20:47:15 60° NW 20:51:10 10° NE
Cosmos 921 Rocket 4.4 20:43:30 10° NW 20:47:16 33° WSW 20:51:03 10° SSW
Landsat 4 4.4 20:44:22 11° SE 20:47:18 33° ENE 20:50:26 10° N
BREEZE-M R/B 3.8 20:43:54 10° SSW 20:47:25 33° SE 20:54:19 10° ENE
SPOT 3 Rocket 3.7 20:44:50 10° SSE 20:49:59 65° ENE 20:55:10 10° N
Cosmos 2278 Rocket 3.2 20:45:49 10° SSE 20:50:27 27° ESE 20:55:08 10° NE
Cosmos 2084 Rocket 4.3 20:48:48 10° NW 20:52:35 39° NE 20:56:17 10° ESE
Meteor 2-1 Rocket 4.3 20:47:04 10° NNW 20:52:41 79° W 20:58:12 10° S
Cosmos 2228 3.3 20:48:48 10° N 20:52:55 51° ENE 20:56:37 12° SSE
Cosmos 1869 3.2 20:51:42 10° N 20:55:32 86° W 20:59:23 10° S
USA 276 3.9 20:55:14 10° W 20:57:22 18° SSW 20:59:13 12° S
SPOT 5 3.9 20:54:16 10° S 20:59:03 46° W 21:04:05 10° NNW
MOS 1 Rocket 3.3 20:55:45 10° S 21:00:20 78° WSW 21:04:44 10° NNW
ERS-1 Rocket 3.3 20:55:42 10° S 21:00:41 68° WSW 21:05:42 10° NNW
Cosmos 1536 Rocket 4.3 20:57:14 12° SSE 21:00:51 35° E 21:04:47 10° NNE
Resurs 01 Rocket 4.4 20:58:41 10° WSW 21:00:51 13° W 21:03:03 10° WNW
Okean O Rocket 4.1 20:59:10 10° SW 21:02:07 18° W 21:05:05 10° NW
BREEZE-M DEB (TANK) 3.9 21:00:01 10° W 21:02:56 48° SSW 21:10:19 11° SE
USA 290 4.0 21:02:43 14° ESE 21:03:32 15° ESE 21:05:31 10° ENE
Cosmos 2218 Rocket 4.3 20:58:21 10° SSE 21:04:13 49° E 21:10:09 10° NNE
ISS -3.4 21:01:56 10° WNW 21:05:14 64° N 21:08:33 10° E
Spot 2 Rocket 3.7 21:05:13 10° S 21:10:19 75° WSW 21:15:27 10° NNW
USA 307 3.7 21:07:09 10° WNW 21:10:54 44° N 21:14:30 10° ENE
Cosmos 614 Rocket 3.9 21:06:02 10° NNW 21:11:08 82° ENE 21:15:20 15° SSE
Cosmos 1943 Rocket 3.3 21:09:13 14° SSE 21:12:54 26° ESE 21:17:27 10° NE
CZ-4C R/B 4.5 21:15:41 10° N 21:19:08 39° WNW 21:22:26 10° SW
Cosmos 2341 Rocket 4.0 21:13:28 10° S 21:19:45 79° E 21:26:08 10° NNE
Terra 2.5 21:15:51 10° S 21:20:26 51° W 21:25:04 10° NNW
COSMOS 2406 4.0 21:15:52 10° NNW 21:21:15 41° NE 21:25:54 13° ESE
Cosmos 2098 4.2 21:22:31 13° S 21:25:29 80° E 21:28:30 10° NNE
Cosmos 44 3.5 21:21:53 10° SW 21:27:09 82° NW 21:32:11 10° NE
MetOp-A 3.7 21:25:34 18° SSE 21:28:49 64° ENE 21:33:00 10° N
ARIANE 5 R/B 3.9 21:27:15 15° ESE 21:30:11 30° ENE 21:34:05 10° N
ATLAS 3B R/B 3.5 21:27:17 11° S 21:33:19 35° ESE 21:40:01 10° NE
USA 305 3.2 21:30:37 10° WNW 21:34:15 48° NNE 21:37:17 11° E
Cosmos 1606 4.4 21:31:49 10° NNW 21:34:50 26° W 21:37:49 10° SSW
NOSS 3 (A) 4.5 21:32:44 10° NW 21:35:21 78° NE 21:37:02 25° SE
Cosmos 1727 Rocket 4.2 21:31:43 10° N 21:38:01 62° ENE 21:42:35 19° SSE
Ariane Rocket 3.7 21:33:17 11° S 21:38:02 48° W 21:42:57 10° NNW
CZ-4C R/B 3.6 21:31:37 10° NW 21:38:06 50° NE 21:46:04 10° ESE
Landsat 5 3.6 21:34:37 10° NNE 21:39:00 63° ESE 21:42:13 17° S
Cosmos 2298 Rocket 4.2 21:33:58 10° SSW 21:39:17 75° WNW 21:44:38 10° NNE
ATLAS 5 CENTAUR R/B 4.5 21:38:36 10° WNW 21:40:58 16° NNW 21:43:34 10° NNE
Cosmos 482 Debris 4.5 21:35:35 10° WSW 21:41:01 74° SSE 21:45:00 10° ENE
USA 215 4.3 21:36:57 14° S 21:41:46 32° SW 21:47:34 10° WNW
Cosmos 1821 Rocket 4.2 21:38:58 16° SSE 21:43:55 60° E 21:50:11 10° NNE
H-2A R/B 4.3 21:42:23 12° E 21:44:34 18° ENE 21:47:09 10° NNE
Cosmos 1437 Rocket 3.5 21:45:21 10° SSW 21:48:51 47° WNW 21:52:24 10° N
Gbstr 26 Del rocket 3.6 21:48:03 10° WNW 21:52:43 75° N 21:58:31 10° E
Cosmos 1238 Rocket 4.4 21:51:38 10° NNE 21:54:24 21° ENE 21:56:00 16° ESE
Geosat 3.9 21:49:35 10° NNE 21:54:39 82° ESE 21:59:40 10° SSW
Cosmos 1544 4.5 21:57:13 11° ENE 21:57:13 11° ENE 21:57:30 10° NE
ULPM Upper Stage 2.8 21:52:34 10° NW 21:56:58 82° NE 21:59:28 25° SE
Meteor 2-13 Rocket 4.5 21:51:24 10° N 21:57:37 87° W 22:02:01 20° S
SeaSat 1 3.9 21:53:41 11° ESE 21:57:45 30° NE 22:02:00 10° NNW
Cosmos 1892 Rocket 4.1 21:56:23 25° SSE 21:58:26 42° E 22:02:38 10° NNE
Cosmos 1269 Rocket 4.0 21:54:33 10° NNW 21:59:53 83° WSW 22:03:08 24° SSE
NOSS 3-1 (C) 3.1 21:57:46 10° SW 22:02:44 87° NW 22:08:49 10° NE
BREEZE-M DEB (TANK) 2.6 22:01:40 10° W 22:03:35 24° SW 22:03:35 24° SW
Cosmos 1833 Rocket 4.2 22:01:37 10° NW 22:06:21 28° WSW 22:10:33 12° SSW
Cosmos 2366 rocket 4.4 22:01:17 10° SSW 22:07:20 59° WNW 22:13:26 10° N
Lacrosse 5 3.5 22:04:28 10° WNW 22:09:09 36° N 22:13:51 10° ENE
NOSS 8 (E) 4.3 22:07:35 10° NW 22:10:37 85° NE 22:11:58 35° SE
Cosmos 407 Rocket 4.3 22:05:53 10° NNW 22:10:50 43° ENE 22:14:03 20° ESE
Cosmos 2058 3.6 22:10:23 29° SE 22:11:45 39° E 22:15:34 10° NNE
Cosmos 1606 Rocket 3.7 22:10:18 10° NNW 22:14:36 64° W 22:16:53 26° S
Cosmos 1726 Rocket 3.5 22:11:10 10° NNW 22:15:31 84° W 22:17:37 30° S
Cosmos 2082 Rocket 2.4 22:21:17 10° NW 22:26:50 62° WSW 22:29:49 27° S
Cosmos 2239 Rocket 4.4 22:23:14 22° S 22:27:23 84° E 22:33:40 10° N
Cosmos 1140 Rocket 3.4 22:24:17 10° NNW 22:29:26 84° ENE 22:32:00 31° SSE
CENTAUR R/B 4.2 22:22:35 10° NW 22:29:51 43° NNE 22:38:17 10° E
EP 1 4.4 22:28:09 10° NW 22:30:48 79° NE 22:31:12 61° ESE
Cosmos 2084 Rocket 4.2 22:28:01 10° WNW 22:31:36 33° WSW 22:32:33 29° SSW
Cosmos 2278 Rocket 2.7 22:28:34 10° SW 22:34:10 59° NW 22:39:47 10° NNE
Cosmos 2369 Rocket 3.5 22:33:17 21° ESE 22:34:38 23° ESE 22:38:55 10° NE
Cosmos 2123 Rocket 4.0 22:29:30 10° N 22:35:51 79° E 22:39:24 28° SSE
USA 290 3.6 22:35:24 15° WSW 22:37:39 36° WNW 22:40:38 10° N
SL-08 R/B 4.5 22:35:16 22° SSW 22:39:22 83° W 22:45:33 10° N
Cosmos 1812 3.0 22:36:02 10° NNW 22:39:28 50° W 22:40:34 35° SSW
PSLV R/B 3.8 22:37:09 10° NNE 22:41:09 72° ESE 22:42:29 40° S
ISS -3.6 22:38:44 10° WNW 22:41:59 52° SSW 22:41:59 52° SSW
NOSS 3-1 (A) 3.0 22:37:23 11° SW 22:42:10 88° SE 22:48:17 10° NE
USA 307 2.4 22:40:34 10° WNW 22:44:25 86° NNE 22:45:39 39° ESE
Cosmos 1782 3.1 22:42:06 10° N 22:45:49 50° ENE 22:46:49 38° ESE
Cosmos 2251 Rocket 3.7 22:40:44 10° NNW 22:46:05 70° ENE 22:48:45 30° SE
MINOTAUR 4 R/B 3.8 22:43:53 10° NNE 22:46:28 51° E 22:46:28 51° E
Cosmos 1378 3.7 22:45:22 10° N 22:48:21 35° ENE 22:48:47 33° E
Cosmos 2058 Rocket 3.1 22:45:16 10° NNW 22:49:36 71° W 22:51:14 37° S
Cosmos 489 Rocket 4.4 22:46:58 26° S 22:50:33 71° ESE 22:56:46 10° NNE
Alouette 2 Rocket 3.9 22:49:20 34° S 22:51:17 83° ESE 22:57:27 10° NNE
Timation 1 Rocket 4.4 22:50:10 10° NNW 22:56:13 81° ENE 22:59:29 29° SE
Cosmos 1943 Rocket 2.6 22:50:39 10° SW 22:56:14 61° WNW 23:01:49 10° NNE
H-2A R/B 3.9 22:56:19 10° NE 22:58:51 16° E 22:59:25 16° E
Cosmos 1271 Rocket 2.8 22:58:20 47° SE 22:58:58 54° E 23:02:41 10° NNE
Cosmos 1515 3.4 22:58:25 10° N 23:01:54 70° E 23:02:25 57° SE
Meteor 2-19 Rocket 4.4 22:56:44 10° N 23:02:55 85° W 23:06:01 31° S
Cosmos 192 4.5 23:00:07 24° SSW 23:03:04 74° WNW 23:08:03 10° NNE
Spot 4 3.9 23:01:14 36° S 23:03:11 75° WSW 23:08:03 10° NNW
Cosmos 2056 Rocket 4.5 23:02:29 27° SE 23:03:53 31° ESE 23:08:27 10° NE
COSMOS 2406 3.9 23:00:16 10° NW 23:05:33 41° WSW 23:07:56 27° SSW
USA 305 2.8 23:03:06 10° WNW 23:05:58 42° WSW 23:05:58 42° WSW
ARIANE 5 R/B 3.7 23:04:43 26° SW 23:06:29 36° W 23:10:38 10° NNW
Cosmos 1934 Rocket 4.0 23:03:27 27° SSW 23:07:05 81° W 23:13:19 10° N
Cosmos 1812 Rocket 3.9 23:05:18 10° N 23:09:42 55° ENE 23:11:13 36° SE
USA 229 DEB 3.7 23:07:40 31° S 23:10:32 54° ESE 23:17:05 10° NE
USA 229 3.7 23:07:50 31° S 23:10:40 54° ESE 23:17:12 10° NE
Cosmos 1602 Rocket 3.9 23:13:06 39° SE 23:14:12 49° E 23:18:23 10° NNE
Lacrosse 4 Rocket 2.6 23:15:05 25° ESE 23:15:05 25° ESE 23:18:22 10° NE
USA 281 3.4 23:11:30 23° SE 23:15:48 68° ENE 23:22:20 10° NNW
Cosmos 1190 Rocket 4.0 23:13:37 10° NNW 23:18:52 81° ENE 23:21:06 35° SSE
H-2A R/B 2.7 23:18:20 41° SW 23:19:10 49° W 23:22:53 10° NNW
Lacrosse 5 rocket 2.3 23:23:15 29° ESE 23:23:15 29° ESE 23:25:56 10° ENE
Cosmos 676 Rocket 4.4 23:17:45 10° NNW 23:22:52 56° ENE 23:25:31 27° SE
ALOS 2 2.7 23:22:03 42° SSW 23:23:22 64° WSW 23:27:46 10° NNW
ATLAS 3B R/B 3.1 23:16:22 10° SW 23:23:37 71° NW 23:31:22 10° NE
CZ-4C R/B 3.1 23:19:55 10° NW 23:26:57 62° SW 23:31:35 28° SSE
SL-27 R/B 3.3 23:26:47 10° N 23:29:22 30° ENE 23:29:31 30° ENE
Cosmos 2285 Rocket 4.0 23:23:20 10° NNW 23:29:48 87° WSW 23:33:03 32° SSE
Cosmos 1809 Rocket 4.5 23:23:50 10° N 23:30:01 75° ENE 23:33:04 32° SSE
Cosmos-2242 3.2 23:26:04 10° NNW 23:30:14 58° W 23:31:18 43° SSW
Cosmos 1238 Rocket 3.8 23:28:57 10° NNW 23:32:14 34° W 23:33:08 30° WSW
BREEZE-M DEB (TANK) 4.2 23:18:26 10° SW 23:32:55 43° SSE 23:37:09 10° E
Cosmos 1758 Rocket 3.4 23:31:55 47° S 23:33:07 89° E 23:37:27 10° N
SJ 16-02 3.9 23:31:15 10° NNE 23:33:49 15° NE 23:36:23 10° E
SeaSat 1 2.6 23:33:22 39° S 23:34:57 57° WSW 23:39:49 10° NW
Cosmos 1626 Rocket 3.8 23:34:36 37° SW 23:36:04 60° WNW 23:40:21 10° N
Okean 1-7 Rocket 3.4 23:35:24 47° S 23:36:38 84° ESE 23:41:03 10° N
Gblst 52 Del rocket 4.2 23:34:17 30° SSW 23:36:50 54° SSE 23:42:12 10° ENE
Exosat Rocket 3.5 23:31:37 10° NNW 23:37:09 90° SSE 23:39:13 36° SSE
Gbstr 26 Del rocket 3.7 23:34:24 10° WNW 23:39:28 58° SSW 23:42:40 27° SE
Meteor 2-3 Rocket 3.7 23:38:47 33° SSW 23:41:28 80° WNW 23:47:10 10° N
Cosmos 1833 4.3 23:39:31 10° NNW 23:45:15 75° ENE 23:48:24 28° SE
BREEZE-M DEB (TANK) 4.5 23:43:14 10° W 23:46:44 48° SSW 23:57:12 10° SE
Cosmos 1605 Rocket 4.2 23:47:24 29° SSW 23:50:37 65° WNW 23:56:46 10° N
Cosmos 2297 3.7 23:47:56 30° SSW 23:50:56 83° WNW 23:56:42 10° NNE
Cosmos 1666 2.2 23:51:09 76° SSE 23:51:23 85° E 23:54:47 10° N
COSMOS 2455 2.9 23:45:51 10° NW 23:51:56 81° NE 23:55:41 25° SE
Lacrosse 5 2.8 23:48:03 10° NW 23:52:59 48° NNE 23:57:54 10° E
Cosmos 1656 Rocket 3.7 23:50:26 28° SW 23:53:23 75° WNW 23:58:58 10° NNE
